Vancouver, British Columbia

12:52 AM PDT on June 24, 2017 (GMT -0700)
Vancouver International Airport

Weather History for CYVR - January, 2013

Change the Weather History Date:

Sunday, January 20, 2013

  Actual Average Record
Temperature  
Mean Temperature 34 °F -  
Max Temperature 39 °F 45 °F 53 °F (2005)
Min Temperature 28 °F 34 °F 23 °F (2012)
Degree Days  
Heating Degree Days 32    
Moisture  
Dew Point 34 °F    
Average Humidity 94    
Maximum Humidity 100    
Minimum Humidity 90    
Precipitation  
Precipitation 0.00 in 0.17 in - ()
Sea Level Pressure  
Sea Level Pressure 30.37 in    
Wind  
Wind Speed 3 mph ()    
Max Wind Speed 9 mph    
Max Gust Speed -    
Visibility 6.6 miles    
Events Fog    
Averages and records for this station are not official NWS values.
T = Trace of Precipitation, MM = Missing Value Source: Averaged Metar Reports

Daily Weather History Graph

Daily Weather History Graph

Search for Another Location

Airport or City:

Trip Planner

Search our weather history database for the weather conditions in past years. The results will help you decide how hot, cold, wet, or windy it might be!

Date:

Astronomy

Jan. 20, 2013 Rise Set
Actual Time 7:57 AM PST 4:50 PM PST
Civil Twilight 7:21 AM PST 5:26 PM PST
Nautical Twilight 6:42 AM PST 6:05 PM PST
Astronomical Twilight 6:05 AM PST 6:43 PM PST
Moon 11:56 AM PST (1/20) 2:32 AM PST (1/20)
Length of Visible Light 10h 04m
Length of Day
8h 53m
Waxing Gibbous, 67% of the Moon is Illuminated
Jan 20
Waxing Gibbous
Jan 26
Full
Feb 3
Last Quarter
Feb 9
New
Feb 17
First Quarter

Hourly Weather History & Observations

Time (PST) Temp. Windchill Dew Point Humidity Pressure Visibility Wind Dir Wind Speed Gust Speed Precip Events Conditions
12:00 AM 32.0 °F 27.5 °F 30.2 °F 93% 30.40 in 15.0 mi East 4.6 mph - N/A   Mostly Cloudy
1:00 AM 32.0 °F - 30.2 °F 93% 30.41 in 15.0 mi Calm Calm - N/A   Mostly Cloudy
2:00 AM 28.4 °F 24.6 °F 26.6 °F 93% 30.42 in 15.0 mi ESE 3.5 mph - N/A Fog Shallow Fog
2:28 AM 30.2 °F - - N/A% - 10.0 mi Calm Calm - N/A Fog Shallow Fog
2:39 AM 30.2 °F - - N/A% - 8.0 mi Calm Calm - N/A Fog Shallow Fog
3:00 AM 32.0 °F - 30.2 °F 93% 30.43 in 8.0 mi Calm Calm - N/A   Overcast
3:30 AM 32.0 °F - - N/A% - 8.0 mi Calm Calm - N/A   Overcast
3:38 AM 32.0 °F - - N/A% - 5.0 mi Calm Calm - N/A   Overcast
4:00 AM 33 °F - 32 °F 94% 30.41 in 3 mi WNW 3.5 mph - -   Mist
4:00 AM 33.8 °F 30.8 °F 32.0 °F 93% 30.41 in 3.0 mi WNW 3.5 mph - N/A   Overcast
4:07 AM 33.8 °F 29.6 °F - N/A% - 1.2 mi NNW 4.6 mph - N/A   Mist
5:00 AM 35.6 °F 30.7 °F 35.6 °F 100% 30.41 in 2.0 mi NW 5.8 mph - N/A   Overcast
5:39 AM 35.6 °F 29.9 °F - N/A% - 3.0 mi NW 6.9 mph - N/A   Overcast
6:00 AM 35.6 °F 31.7 °F 35.6 °F 100% 30.40 in 3.0 mi North 4.6 mph - N/A   Overcast
6:10 AM 35.6 °F 32.8 °F - N/A% - 0.5 mi NE 3.5 mph - N/A Fog Fog
7:00 AM 35.6 °F 32.8 °F 33.8 °F 93% 30.40 in 1.5 mi NNW 3.5 mph - N/A   Overcast
7:23 AM 35.6 °F 31.7 °F - N/A% - 4.0 mi North 4.6 mph - N/A   Overcast
7:40 AM 35.6 °F 32.8 °F - N/A% - 1.0 mi North 3.5 mph - N/A   Overcast
7:52 AM 35.6 °F - - N/A% - 0.5 mi Calm Calm - N/A Fog Fog
8:00 AM 35.6 °F - 33.8 °F 93% 30.41 in 0.8 mi Calm Calm - N/A   Mist
8:11 AM 35.6 °F - - N/A% - 2.0 mi Calm Calm - N/A   Overcast
9:00 AM 35.6 °F 31.7 °F 35.6 °F 100% 30.42 in 1.8 mi North 4.6 mph - N/A   Overcast
10:00 AM 37 °F - 36 °F 95% 30.42 in 2 mi NNW 3.5 mph - -   Mist
10:00 AM 37.4 °F 33.8 °F 35.6 °F 93% 30.42 in 2.0 mi WNW 4.6 mph - N/A   Overcast
10:39 AM 37.4 °F 33.8 °F - N/A% - 4.0 mi NW 4.6 mph - N/A   Overcast
11:00 AM 37.4 °F 32.8 °F 35.6 °F 93% 30.42 in 4.0 mi NW 5.8 mph - N/A   Overcast
12:00 PM 37.4 °F 34.9 °F 37.4 °F 100% 30.40 in 6.0 mi NNW 3.5 mph - N/A   Overcast
1:00 PM 37.4 °F 33.8 °F 35.6 °F 93% 30.38 in 8.0 mi WNW 4.6 mph - N/A   Overcast
2:00 PM 37.4 °F 32.8 °F 35.6 °F 93% 30.36 in 10.0 mi West 5.8 mph - N/A   Overcast
3:00 PM 37.4 °F 32.1 °F 35.6 °F 93% 30.35 in 12.0 mi NW 6.9 mph - N/A   Overcast
4:00 PM 38 °F - 36 °F 90% 30.35 in 12 mi WNW 8.1 mph - -   Overcast
4:00 PM 37.4 °F 32.1 °F 35.6 °F 93% 30.35 in 12.0 mi WNW 6.9 mph - N/A   Overcast
4:49 PM 39.2 °F 33.6 °F - N/A% - 12.0 mi WNW 8.1 mph - N/A   Overcast
5:00 PM 37.4 °F 31.4 °F 35.6 °F 93% 30.33 in 12.0 mi WNW 8.1 mph - N/A   Overcast
5:51 PM 35.6 °F 28.6 °F - N/A% - 12.0 mi WNW 9.2 mph - N/A   Overcast
6:00 PM 35.6 °F 28.6 °F 35.6 °F 100% 30.32 in 12.0 mi WNW 9.2 mph - N/A   Mostly Cloudy
7:00 PM 35.6 °F 29.2 °F 33.8 °F 93% 30.31 in 10.0 mi WNW 8.1 mph - N/A   Mostly Cloudy
7:38 PM 35.6 °F 29.2 °F - N/A% - 8.0 mi WNW 8.1 mph - N/A   Mostly Cloudy
8:00 PM 37.4 °F 32.1 °F 35.6 °F 93% 30.31 in 8.0 mi WNW 6.9 mph - N/A   Mostly Cloudy
8:52 PM 37.4 °F 33.8 °F - N/A% - 8.0 mi NW 4.6 mph - N/A   Mostly Cloudy
9:00 PM 37.4 °F 32.1 °F 35.6 °F 93% 30.31 in 8.0 mi WNW 6.9 mph - N/A   Mostly Cloudy
10:00 PM 37 °F - 36 °F 95% 30.31 in 7 mi NW 6.9 mph - -   Overcast
10:00 PM 37.4 °F 32.1 °F 35.6 °F 93% 30.31 in 8.0 mi NW 6.9 mph - N/A   Overcast
11:00 PM 37.4 °F 32.8 °F 35.6 °F 93% 30.31 in 5.0 mi NNW 5.8 mph - N/A   Overcast
11:50 PM 37.4 °F - - N/A% - 1.5 mi Calm Calm - N/A   Overcast